TimeCDT,TemperatureF,Dew PointF,Humidity,Sea Level PressureIn,VisibilityMPH,Wind Direction,Wind SpeedMPH,Gust SpeedMPH,PrecipitationIn,Events,Conditions,WindDirDegrees,DateUTC
12:52 AM,19.9,12.0,71,30.10,10.0,NW,11.5,-,N/A,,Clear,320,2013-03-11 05:52:00
1:52 AM,19.0,12.0,74,30.09,10.0,WNW,15.0,-,N/A,,Clear,300,2013-03-11 06:52:00
2:52 AM,19.0,10.9,71,30.09,10.0,NW,12.7,-,N/A,,Clear,310,2013-03-11 07:52:00
3:52 AM,19.0,10.9,71,30.08,10.0,WNW,10.4,-,N/A,,Clear,300,2013-03-11 08:52:00
4:52 AM,19.4,12.2,74,29.99,10.0,NW,10.4,-,N/A,,Clear,310,2013-03-11 09:52:00
5:52 AM,19.0,10.9,71,30.04,10.0,WNW,6.9,-,N/A,,Clear,300,2013-03-11 10:52:00
6:52 AM,19.0,10.9,71,30.05,10.0,WNW,3.5,-,N/A,,Clear,300,2013-03-11 11:52:00
7:52 AM,17.1,10.9,77,30.06,10.0,SW,4.6,-,N/A,,Clear,220,2013-03-11 12:52:00
8:52 AM,23.0,15.1,72,30.06,10.0,West,3.5,-,N/A,,Clear,260,2013-03-11 13:52:00
9:52 AM,33.1,19.9,59,30.06,10.0,West,5.8,-,N/A,,Clear,270,2013-03-11 14:52:00
10:52 AM,37.0,19.0,48,30.04,10.0,WNW,3.5,-,N/A,,Clear,290,2013-03-11 15:52:00
11:52 AM,43.0,19.0,38,30.02,10.0,West,5.8,-,N/A,,Clear,260,2013-03-11 16:52:00
12:52 PM,46.9,21.0,36,30.01,10.0,WSW,5.8,-,N/A,,Clear,250,2013-03-11 17:52:00
1:52 PM,55.0,21.0,27,29.97,10.0,WNW,10.4,17.3,N/A,,Clear,290,2013-03-11 18:52:00
2:52 PM,57.0,19.0,23,29.94,10.0,NW,12.7,18.4,N/A,,Clear,310,2013-03-11 19:52:00
3:52 PM,59.0,19.9,22,29.94,10.0,NNW,13.8,20.7,N/A,,Clear,340,2013-03-11 20:52:00
4:52 PM,57.9,23.0,26,29.94,10.0,North,15.0,-,N/A,,Clear,360,2013-03-11 21:52:00
5:52 PM,57.9,23.0,26,29.93,10.0,North,10.4,-,N/A,,Clear,360,2013-03-11 22:52:00
6:52 PM,54.0,24.1,31,29.95,10.0,ENE,4.6,-,N/A,,Clear,60,2013-03-11 23:52:00
7:52 PM,48.9,27.0,43,29.97,10.0,ENE,6.9,-,N/A,,Overcast,60,2013-03-12 00:52:00
8:52 PM,45.0,28.0,52,29.99,10.0,NE,6.9,-,N/A,,Scattered Clouds,50,2013-03-12 01:52:00
9:52 PM,46.0,27.0,47,30.00,10.0,North,12.7,16.1,N/A,,Mostly Cloudy,10,2013-03-12 02:52:00
10:52 PM,46.0,28.9,51,30.03,10.0,NNE,10.4,-,N/A,,Overcast,20,2013-03-12 03:52:00
11:52 PM,45.0,30.0,56,30.06,10.0,NNE,11.5,-,N/A,,Overcast,20,2013-03-12 04:52:00